Home > Weather > Valparaíso > Past weeks

Flag for Chile Weather for the Past 2 Weeks in Valparaíso, Chile

Now
59 °F

Clear.


Feels Like: 59 °F
Forecast: 59 / 69 °F
Wind: 2 mph from North

Location: Pudahuel

Current Time: Apr 29, 2016 at 11:15:11 PM

Latest Report: Apr 29, 2016 at 10:00 PM


Visibility: 10 mi

Pressure: 30.04 "Hg

Humidity: 48%

Dew Point: 39 °F

Location of ValparaísoLocation

Historic Weather in Valparaíso — Graph

°F

Valparaíso Temperature Yesterday

Maximum temperature yesterday: 66 °F (at 3:00 PM)
Minimum temperature yesterday: 50 °F (at 9:00 AM)
Average temperature yesterday: 58 °F

High & Low Weather Summary for the Past Weeks

 TemperatureHumidityPressure
High75 °F (Apr 29, 5:00 PM)100% (Apr 25, 8:00 AM)30.15 "Hg (Apr 25, 8:00 AM)
Low37 °F (Apr 25, 7:00 AM)12% (Apr 26, 4:00 PM)29.83 "Hg (Apr 15, 6:00 PM)
Average57 °F73%30.02 "Hg
* Reported Apr 14 9:00 PM — Apr 29 9:00 PM, Valparaíso, Weather by CustomWeather, © 2016

Note: Actual official high and low records may vary slightly from our data, if they occured in-between our weather recording intervals... More about our weather records

Advertising

Valparaíso Weather History for the Previous 24 Hours

Scroll right to see more
 ConditionsComfort  
Time TempWeatherWind HumidityBarometerVisibility
9:00 PM
Fri, Apr 29
63 °FClear.No wind39%30.04 "Hg10 mi
8:00 PM66 °FClear.5 mph32%30.04 "Hg10 mi
7:00 PM70 °FSunny.9 mph43%30.04 "Hg10 mi
6:00 PM73 °FSunny.13 mph31%30.01 "Hg10 mi
5:00 PM75 °FSunny.10 mph24%30.04 "Hg10 mi
4:00 PM73 °FClear.7 mph25%30.04 "Hg5 mi
3:00 PM72 °FClear.5 mph31%30.07 "Hg4 mi
2:00 PM70 °FClear.2 mph38%30.09 "Hg4 mi
1:00 PM66 °FPassing clouds.2 mph46%30.12 "Hg4 mi
12:00 PM63 °FPassing clouds.1 mph56%30.12 "Hg4 mi
11:00 AM59 °FHaze.No wind68%30.12 "Hg2 mi
10:00 AM54 °FScattered clouds.No wind82%30.12 "Hg2 mi
9:00 AM52 °FPassing clouds.3 mph88%30.09 "Hg1 mi
8:00 AM52 °FPartly cloudy.3 mph82%30.09 "Hg2 mi
7:00 AM54 °FPartly cloudy.3 mph82%30.09 "Hg2 mi
6:00 AM55 °FPartly cloudy.No wind77%30.09 "Hg3 mi
5:00 AM55 °FOvercast.No wind77%30.09 "Hg4 mi
4:00 AM55 °FOvercast.5 mph77%30.09 "Hg4 mi
3:00 AM55 °FOvercast.3 mph77%30.12 "Hg4 mi
2:00 AM55 °FOvercast.1 mph77%30.12 "Hg4 mi
1:00 AM57 °FOvercast.3 mph72%30.12 "Hg5 mi
12:00 AM57 °FOvercast.6 mph72%30.12 "HgN/A
11:00 PM
Thu, Apr 28
59 °FPassing clouds.8 mph63%30.12 "HgN/A
Weather by CustomWeather, © 2016

See weather overviewHow to use our weather pages